This demonstration page uses our WeatherBlox Daily Observations layout. Learn more.

40.92945, -100.16068

Hourly Observations for August 1, 2015

Temp ( °F °C ) Dew Point ( °F °C ) Humidity (%) Winds ( mph kmh ) Pressure ( in mb ) Visibility ( mi km ) Precip ( " mm )
12:15 am 00:15 Clear 70 20.9 61 16.2 75 75 SSE 7 11 30.06 1018 10 16.0934 N/A
12:35 am 00:35 Clear 68 20 62 16.5 80 80 SSE 3 6 30.06 1018 10 16.0934 N/A
12:55 am 00:55 Clear 67 19.7 62 16.5 82 82 Calm 30.06 1018 10 16.0934 N/A
1:15 am 01:15 Clear 67 19.6 62 16.6 83 83 Calm 30.03 1017 10 16.0934 N/A
1:35 am 01:35 Clear 67 19.2 62 16.4 84 84 SE 3 6 30.03 1017 10 16.0934 N/A
1:55 am 01:55 Clear 67 19.5 62 16.6 83 83 W 5 7 30.03 1017 10 16.0934 N/A
2:15 am 02:15 Clear 65 18.6 62 16.5 88 88 Calm 30.03 1017 10 16.0934 N/A
2:35 am 02:35 Clear 66 18.8 63 17 89 89 SSW 7 11 30.03 1017 10 16.0934 N/A
2:55 am 02:55 Clear 67 19.5 63 17 86 86 Calm 30.03 1017 10 16.0934 N/A
3:15 am 03:15 Clear 67 19.5 63 17 86 86 S 3 6 30.03 1017 10 16.0934 N/A
3:35 am 03:35 Clear 68 20 64 17.5 86 86 S 6 9 30 1016 10 16.0934 N/A
3:55 am 03:55 Clear 69 20.3 63 17.3 83 83 SW 5 7 30 1016 10 16.0934 N/A
4:15 am 04:15 Clear 70 21 60 15.6 71 71 SW 7 11 29.97 1015 10 16.0934 N/A
4:35 am 04:35 Clear 70 21 59 15 69 69 WSW 6 9 29.97 1015 10 16.0934 N/A
4:55 am 04:55 Clear 69 20.5 58 14.6 69 69 WSW 7 11 29.97 1015 10 16.0934 N/A
5:15 am 05:15 Clear 70 21 58 14.2 65 65 SW 10 17 29.94 1014 10 16.0934 N/A
5:35 am 05:35 Clear 71 21.7 56 13.4 59 59 SW 9 15 29.94 1014 10 16.0934 N/A
5:55 am 05:55 Clear 70 21.2 55 12.8 59 59 WSW 3 6 29.94 1014 10 16.0934 N/A
6:15 am 06:15 Clear 68 20 56 13.3 65 65 N 5 7 29.97 1015 10 16.0934 N/A
6:35 am 06:35 Clear 64 17.9 57 14.1 79 79 N 6 9 29.97 1015 10 16.0934 N/A
6:55 am 06:55 Sunny 63 17.3 58 14.5 84 84 NNE 7 11 29.97 1015 10 16.0934 N/A
7:15 am 07:15 Sunny 64 17.7 58 14.7 83 83 NE 23 37 30.03 1017 10 16.0934 N/A
7:35 am 07:35 Sunny 66 19 61 16 83 83 ENE 12 19 30.06 1018 10 16.0934 N/A
7:55 am 07:55 Sunny 66 19 62 16.5 86 86 ENE 16 26 30.06 1018 10 16.0934 N/A
8:15 am 08:15 Sunny 68 20.2 62 16.9 81 81 ENE 16 26 30.06 1018 10 16.0934 N/A
8:35 am 08:35 Sunny 70 21.1 63 17 78 78 E 20 31 30.06 1018 10 16.0934 N/A
8:55 am 08:55 Sunny 70 21 62 16.5 76 76 E 21 33 30.06 1018 10 16.0934 N/A
9:15 am 09:15 Sunny 71 21.5 61 16.3 72 72 ESE 16 26 30.03 1017 10 16.0934 N/A
9:35 am 09:35 Sunny 73 22.5 59 15.2 63 63 ESE 18 30 30 1016 10 16.0934 N/A
9:55 am 09:55 Sunny 74 23.4 58 14.6 58 58 E 15 24 30 1016 10 16.0934 N/A
10:15 am 10:15 Sunny 75 24.1 58 14.5 55 55 ESE 17 28 30 1016 10 16.0934 N/A
10:35 am 10:35 Sunny 77 25 58 14.5 52 52 ESE 16 26 29.97 1015 10 16.0934 N/A
10:55 am 10:55 Sunny 78 25.8 58 14.2 49 49 E 16 26 29.97 1015 10 16.0934 N/A
11:15 am 11:15 Sunny 79 26.1 57 14.1 48 48 ESE 14 22 29.97 1015 10 16.0934 N/A
11:35 am 11:35 Sunny 80 26.5 56 13.6 45 45 E 17 28 29.97 1015 10 16.0934 N/A
11:55 am 11:55 Sunny 81 27.2 58 14.3 45 45 ESE 13 20 29.97 1015 10 16.0934 N/A
12:15 pm 12:15 Sunny 82 27.6 59 15 46 46 ESE 13 20 29.94 1014 10 16.0934 N/A
12:35 pm 12:35 Sunny 82 27.9 57 13.8 42 42 ESE 14 22 29.94 1014 10 16.0934 N/A
12:55 pm 12:55 Sunny 83 28.3 60 15.3 45 45 E 13 20 29.94 1014 10 16.0934 N/A
1:15 pm 13:15 Sunny 83 28.4 60 15.3 45 45 ESE 12 19 29.94 1014 10 16.0934 N/A
1:35 pm 13:35 Sunny 84 29 60 15.5 44 44 ESE 9 15 29.94 1014 10 16.0934 N/A
1:55 pm 13:55 Sunny 85 29.2 60 15.5 43 43 E 8 13 29.91 1013 10 16.0934 N/A
2:15 pm 14:15 Sunny 85 29.5 60 15.4 42 42 SE 12 19 29.91 1013 10 16.0934 N/A
2:35 pm 14:35 Sunny 86 30 60 15.7 42 42 ESE 10 17 29.91 1013 10 16.0934 N/A
2:55 pm 14:55 Sunny 86 30.2 60 15.7 41 41 ESE 10 17 29.91 1013 10 16.0934 N/A
3:15 pm 15:15 Sunny 85 29.6 58 14.2 39 39 ENE 16 26 29.88 1012 10 16.0934 N/A
3:35 pm 15:35 Sunny 85 29.7 57 14 38 38 ENE 16 26 29.88 1012 10 16.0934 N/A
3:55 pm 15:55 Sunny 85 29.7 57 13.9 38 38 ENE 17 28 29.88 1012 10 16.0934 N/A
4:15 pm 16:15 Sunny 85 29.7 57 13.8 38 38 E 16 26 29.88 1012 10 16.0934 N/A
4:35 pm 16:35 Sunny 85 29.6 58 14.5 40 40 E 14 22 29.88 1012 10 16.0934 N/A
4:55 pm 16:55 Sunny 85 29.5 59 14.9 41 41 ESE 14 22 29.88 1012 10 16.0934 N/A
5:15 pm 17:15 Sunny 85 29.6 60 15.3 42 42 ESE 14 22 29.88 1012 10 16.0934 N/A
5:35 pm 17:35 Sunny 85 29.4 60 15.7 43 43 E 15 24 29.85 1011 10 16.0934 N/A
5:55 pm 17:55 Sunny 85 29.2 61 16.2 45 45 E 15 24 29.85 1011 10 16.0934 N/A
6:15 pm 18:15 Sunny 84 29 61 16.2 46 46 E 13 20 29.85 1011 10 16.0934 N/A
6:35 pm 18:35 Sunny 84 29 62 16.5 47 47 E 9 15 29.85 1011 10 16.0934 N/A
6:55 pm 18:55 Sunny 83 28.1 62 16.9 51 51 ESE 7 11 29.83 1010 10 16.0934 N/A
7:15 pm 19:15 Sunny 84 28.7 62 16.8 49 49 SSE 9 15 29.8 1009 10 16.0934 N/A
7:35 pm 19:35 Sunny 82 27.5 63 17.2 53 53 SE 9 15 29.8 1009 10 16.0934 N/A
7:55 pm 19:55 Sunny 80 26.8 64 17.9 58 58 SSE 8 13 29.8 1009 10 16.0934 N/A
8:15 pm 20:15 Sunny 79 26.3 64 17.5 58 58 SSE 10 17 29.83 1010 10 16.0934 N/A
8:35 pm 20:35 Sunny 78 25.5 64 17.6 62 62 SSE 7 11 29.83 1010 10 16.0934 N/A
8:55 pm 20:55 Sunny 77 25 65 18.1 66 66 S 6 9 29.85 1011 10 16.0934 N/A
9:15 pm 21:15 Clear 76 24.4 65 18.5 70 70 SSE 5 7 29.85 1011 10 16.0934 N/A
9:35 pm 21:35 Clear 75 24.1 66 18.7 72 72 SSE 6 9 29.83 1010 7 11.26538 N/A
9:55 pm 21:55 Clear 75 23.9 66 19.1 75 75 SSE 5 7 29.85 1011 10 16.0934 N/A
10:15 pm 22:15 Clear 75 23.7 67 19.2 76 76 SE 5 7 29.85 1011 10 16.0934 N/A
10:35 pm 22:35 Clear 74 23.5 66 19.1 76 76 SSE 6 9 29.85 1011 10 16.0934 N/A
10:55 pm 22:55 Clear 73 22.8 66 19 79 79 SSE 3 6 29.88 1012 10 16.0934 N/A
11:15 pm 23:15 Clear 74 23.1 66 19 78 78 SSE 3 6 29.88 1012 10 16.0934 N/A
11:35 pm 23:35 Clear 73 22.6 65 18.5 78 78 SSE 5 7 29.83 1010 10 16.0934 N/A
11:55 pm 23:55 Clear 73 22.6 65 18.4 77 77 SSE 6 9 29.83 1010 10 16.0934 N/A

Powered by AerisWeather